ONEWEB-0094, 45450

Orbit data source: Space-Track

ONEWEB-0094, 45450 is a payload satellite owned by One Web (UK) in LEO that was launched on Sat, 21 Mar 2020 UTC via a SOYUZ-2-1B launch vehicle from the Tyuratam Missile And Space Complex (TTMTR). Payload-class satellites include a variety of spacecraft equipped with specific instruments for various scientific and technological missions. These include communications satellites like Starlink; space stations such as the ISS; scientific satellites like the Hubble; Earth observation satellites from companies like Planet Labs, Umbra, and HawkEye 360; GPS; miniature CubeSats for education and research; and military/defense satellites.

Loading next visibility...
Identifier
45450, 2020-020AC
Orbit
LEO
Last TLE update
1 day ago
Origin
Manufacturer
One Web
Mission
Operational Commercial Communications
Bus & Motor
ARROW, Unknown motor
Mass
148 kg wet, ~140 kg dry
Launch date (UTC)
2020-03-21 (5 years ago)
Launch vehicle
SOYUZ-2-1B
Launch site
Tyuratam Missile And Space Complex (TTMTR)
Object type
Payload
Rocket body
Debris
Shape & HBR
Trap Box + 2 Pan, 5 m
Radar Cross Section
2.957 m², Medium (>0.1 m² and < 1m²)

Expand to show TLE details & history

TLE from 1 day ago
0 ONEWEB-0094
1 45450U 20020AC  25185.72141141 -.00000022  00000-0 -90432-4 0  9992
2 45450  87.9060  75.0075 0001795  80.2749 279.8586 13.17648212260554
Epoch: 2025-07-04T17:18Z
TLE epoch observation values (Epoch: 2025-07-04T17:18:49.945Z)
Latitude
0.00004°
Longitude
-107.67034°
Altitude
1,196.382 km
Speed
7.256 km/s
True Right ascension
05h 00m 01s
True Declination
0° 00' 00"
Sunlit
Object was in daylight at epoch
Visualization orbit readout
Latitude
4.33685°
Longitude
71.96734°
Altitude
1,196.348 km
Speed
7.256 km/s
Apparent Right ascension
17h 18m 25s
Apparent Declination
-15° 47' 33"
Sunlit
Object is in full shadow
Visualization observer readout
Local Sidereal Time
05:49:05
Azimuth
17.655° NNE
Elevation
-64.968°
Doppler factor
1
Orbital elements
Apogee altitude
1,192.184 km
Perigee altitude
1,189.467 km
Semi-major axis
7,568.962 km
Eccentricity
0.00018
Inclination
87.906°
RAAN
75.0075°
Arg. of periapsis
80.2749°
True anomaly
Unknown
Mean anomaly
279.8586°
Eccentric anomaly
Unknown
Mean motion
3.29601 °/min
Orbital period
109.22 mins
BSTAR
-0.000090432
Loading maneuver chart data...
Loading SW <> Apogee altitude chart data...
Loading historical data...
Loading historical data...
Loading historical data...
Loading historical data...
Loading historical data...
Loading historical data...
Loading historical data...

ONEWEB-0094 Visibility forecast

Observer location: undefined°, undefined°

Span
Click to sort rows by Start time (UTC) header in descending order
Start Az.
Max El. time (UTC)
Max El. Az.
Max El.
End time (UTC)
End Az.
6 mins2025-07-05 18:59:38.471Z260.948° W2025-07-05 19:02:38.471Z286.64° WNW13.84°2025-07-05 19:05:38.471Z312.888° NW
12 mins2025-07-06 04:33:38.471Z6.687° NNE2025-07-06 04:38:38.471Z70.528° E43.32°2025-07-06 04:45:38.471Z171.615° S
7 mins2025-07-06 06:24:38.471Z314.374° NW2025-07-06 06:27:38.471Z284.524° WNW18.685°2025-07-06 06:31:38.471Z247.82° W
12 mins2025-07-06 16:48:38.471Z169.348° S2025-07-06 16:53:38.471Z114.286° SE43.819°2025-07-06 17:00:38.471Z4.474° NNE
|